DW9055 Largo FL US current weather conditions

sailwx.info

Wind from 111

Air temperature 8.9° C
Dewpoint 3.3° C

Last reported at 2020-Feb-22 16:00 UTC.
Time now 2020-Feb-22 16:20 UTC

Location: N 29°41' W 083°02'.
View on Google Maps.

See reports from other nearby stations

  
Tides and Currents Weather Stations Pressure Air Temp Water Temp Dewpoint Dewpoint Depression Visibility Wind Speed Wind Dir Waves Ship Positions
date/time (UTC)wind fromknots sea level pressurealtimeterstation pressurevisibilityair tempwater tempwave heightnotes
2020-Feb-22 16:00 111 8.9
2020-Feb-22 15:45 345 2 gusting 8 8.3
2020-Feb-22 15:30 184 1 gusting 6 7.8
2020-Feb-22 15:16 144 1 gusting 6 7.8
2020-Feb-22 15:01 062 7.2
2020-Feb-22 14:46 176 1 gusting 8 6.1
2020-Feb-22 14:31 103 5.6
2020-Feb-22 14:16 174 1 gusting 9 4.4
2020-Feb-22 14:01 167 3.9
2020-Feb-22 13:46 140 0 gusting 5 3.3
2020-Feb-22 13:31 071 2.8
2020-Feb-22 13:15 189 2.2
2020-Feb-22 13:00 176 1.7
2020-Feb-22 12:46 013 0.6
2020-Feb-22 12:30 359 0.6
2020-Feb-22 12:16 226 0.6
2020-Feb-22 12:00 334 0.6
2020-Feb-22 11:45 205 0.6
2020-Feb-22 11:30 065 1.1
2020-Feb-22 11:15 207 1.1
2020-Feb-22 11:00 078 1.1
2020-Feb-22 10:45 214 1.1
2020-Feb-22 10:30 170 1.1
2020-Feb-22 10:15 151 1.1
2020-Feb-22 10:01 163 1.1
2020-Feb-22 09:47 331 1.1
2020-Feb-22 09:31 084 1.1
2020-Feb-22 09:16 180 1.7
2020-Feb-22 09:01 308 1.7
2020-Feb-22 08:46 175 1.7
2020-Feb-22 08:32 210 1.7
2020-Feb-22 08:16 290 1.7
2020-Feb-22 08:01 184 2.2
2020-Feb-22 07:46 167 2.2
2020-Feb-22 07:31 188 2.2
2020-Feb-22 07:16 174 2.2
2020-Feb-22 07:00 338 2.2
2020-Feb-22 06:46 102 2.2
2020-Feb-22 06:30 196 2.2
2020-Feb-22 06:16 186 2.2
2020-Feb-22 06:00 148 2.8
2020-Feb-22 05:45 177 3.3
2020-Feb-22 05:30 221 3.9
2020-Feb-22 05:15 141 3.9
2020-Feb-22 05:00 139 4.4
2020-Feb-22 04:45 202 4.4
2020-Feb-22 04:30 194 0 gusting 6 4.4
2020-Feb-22 04:15 153 4.4
2020-Feb-22 04:00 165 5.0
2020-Feb-22 03:45 165 5.0
2020-Feb-22 03:30 151 5.0
2020-Feb-22 03:16 283 5.0
2020-Feb-22 03:02 054 5.0
2020-Feb-22 02:47 172 5.0
2020-Feb-22 02:31 205 5.6
2020-Feb-22 02:18 145 5.6
2020-Feb-22 02:01 082 5.6
2020-Feb-22 01:46 177 6.1
2020-Feb-22 01:30 158 6.1
2020-Feb-22 01:15 106 6.7
2020-Feb-22 01:01 174 6.1
2020-Feb-22 00:46 164 6.1
2020-Feb-22 00:31 219 6.1
2020-Feb-22 00:16 156 6.7
2020-Feb-22 00:01 174 7.2
2020-Feb-21 23:47 174 7.2
2020-Feb-21 23:30 158 8.3
2020-Feb-21 23:16 155 8.9
2020-Feb-21 23:01 129 9.4
2020-Feb-21 22:45 177 0 gusting 6 9.4
2020-Feb-21 22:30 171 0 gusting 7 10.0
2020-Feb-21 22:16 136 10.6
2020-Feb-21 22:02 154 10.0
2020-Feb-21 21:45 163 1 gusting 6 10.0
2020-Feb-21 21:30 222 3 gusting 12 10.0
2020-Feb-21 21:15 311 0 gusting 8 10.0
2020-Feb-21 21:01 357 0 gusting 6 10.0
2020-Feb-21 20:45 164 0 gusting 6 8.9
2020-Feb-21 20:30 067 1 gusting 6 9.4
2020-Feb-21 20:15 195 0 gusting 8 8.3
2020-Feb-21 20:00 033 0 gusting 6 8.3
2020-Feb-21 19:45 166 0 gusting 7 7.8
2020-Feb-21 19:30 291 7.8
2020-Feb-21 19:15 161 3 gusting 10 7.8
2020-Feb-21 19:00 164 1 gusting 7 7.2
2020-Feb-21 18:45 080 0 gusting 10 7.2
2020-Feb-21 18:30 148 1 gusting 13 7.2
2020-Feb-21 18:15 002 0 gusting 9 7.2
2020-Feb-21 18:00 102 1 gusting 7 6.7
2020-Feb-21 17:45 141 0 gusting 8 6.7
2020-Feb-21 17:30 201 0 gusting 5 6.7
2020-Feb-21 17:15 115 0 gusting 13 6.7
2020-Feb-21 17:00 123 1 gusting 10 6.7
2020-Feb-21 16:45 018 0 gusting 6 7.2
2020-Feb-21 16:30 165 1 gusting 7 6.7
2020-Feb-21 16:15 229 2 gusting 11 6.1
2020-Feb-21 16:01 135 2 gusting 10 6.1
2020-Feb-21 15:46 158 2 gusting 9 5.6
2020-Feb-21 15:31 122 1 gusting 6 5.6
2020-Feb-21 15:16 158 2 gusting 8 6.1
2020-Feb-21 15:02 141 5.6
2020-Feb-21 14:46 147 5.6
2020-Feb-21 14:31 189 3 gusting 8 5.6
2020-Feb-21 14:16 186 0 gusting 9 5.6
2020-Feb-21 14:02 228 1 gusting 7 6.1
2020-Feb-21 13:45 047 1 gusting 9 6.1
2020-Feb-21 13:30 196 1 gusting 13 6.1
2020-Feb-21 13:15 160 1 gusting 6 6.1
2020-Feb-21 13:01 191 3 gusting 10 6.1
2020-Feb-21 12:45 189 0 gusting 6 6.1
2020-Feb-21 12:30 139 0 gusting 8 6.1
2020-Feb-21 12:15 094 6.1
2020-Feb-21 12:01 151 1 gusting 9 6.1
2020-Feb-21 11:45 158 0 gusting 5 6.1
2020-Feb-21 11:30 128 2 gusting 11 6.1
2020-Feb-21 11:15 171 0 gusting 9 6.1
2020-Feb-21 11:00 202 2 gusting 9 6.1
2020-Feb-21 10:45 283 1 gusting 9 6.1
2020-Feb-21 10:31 184 2 gusting 6 6.1
2020-Feb-21 10:16 169 3 gusting 8 6.1
2020-Feb-21 10:01 174 0 gusting 6 6.1
2020-Feb-21 09:46 080 2 gusting 9 6.1
2020-Feb-21 09:32 167 1 gusting 8 6.7
2020-Feb-21 09:16 151 1 gusting 9 6.7
2020-Feb-21 09:00 196 1 gusting 8 6.7
2020-Feb-21 08:46 140 1 gusting 10 6.7
2020-Feb-21 08:31 162 1 gusting 11 6.7
2020-Feb-21 08:16 207 1 gusting 6 6.7
2020-Feb-21 08:01 137 0 gusting 6 7.2
2020-Feb-21 07:45 129 0 gusting 7 7.2
2020-Feb-21 07:30 143 7.2
2020-Feb-21 07:15 127 7.2
2020-Feb-21 07:00 058 0 gusting 5 7.2
2020-Feb-21 06:45 136 0 gusting 10 7.8
2020-Feb-21 06:30 189 0 gusting 6 7.8
2020-Feb-21 06:15 153 0 gusting 8 7.8
2020-Feb-21 06:00 155 0 gusting 5 7.8
2020-Feb-21 05:45 172 0 gusting 6 8.3
2020-Feb-21 05:30 180 1 gusting 7 8.3
2020-Feb-21 05:15 357 1 gusting 10 8.9
2020-Feb-21 05:00 141 0 gusting 6 9.4
2020-Feb-21 04:48 165 0 gusting 5 9.4
2020-Feb-21 04:32 068 0 gusting 6 9.4
2020-Feb-21 04:16 165 1 gusting 6 9.4
2020-Feb-21 04:01 006 0 gusting 6 10.0
2020-Feb-21 03:46 158 10.0
2020-Feb-21 03:30 160 0 gusting 4 10.6
2020-Feb-21 03:16 193 0 gusting 9 11.1
2020-Feb-21 03:01 116 0 gusting 6 11.7
2020-Feb-21 02:46 159 1 gusting 6 12.2
2020-Feb-21 02:31 051 13.3
2020-Feb-21 02:15 167 13.3
2020-Feb-21 02:01 149 0 gusting 10 14.4
2020-Feb-21 01:45 158 2 gusting 9 15.6
2020-Feb-21 01:30 153 17.2
2020-Feb-21 01:15 160 17.8
2020-Feb-21 01:00 034 18.3
2020-Feb-21 00:45 108 18.3
2020-Feb-21 00:30 023 18.9
2020-Feb-21 00:15 313 20.0
2020-Feb-21 00:01 339 20.0
2020-Feb-20 23:45 307 20.0
2020-Feb-20 23:30 322 20.0
2020-Feb-20 23:15 324 20.6
2020-Feb-20 23:01 317 20.6
2020-Feb-20 22:45 295 20.6
2020-Feb-20 22:30 312 21.1
2020-Feb-20 22:16 329 21.1
2020-Feb-20 22:00 331 21.1
2020-Feb-20 21:45 338 20.6
2020-Feb-20 21:30 333 20.6
2020-Feb-20 21:15 009 21.1
2020-Feb-20 21:00 075 21.1
2020-Feb-20 20:45 090 21.7
2020-Feb-20 20:30 338 21.7
2020-Feb-20 20:15 344 21.7
2020-Feb-20 20:00 003 22.2
2020-Feb-20 19:45 311 21.7
2020-Feb-20 19:30 316 22.2
2020-Feb-20 19:15 283 22.2
2020-Feb-20 19:04 305 22.2
2020-Feb-20 18:32 302 23.3
2020-Feb-20 18:17 198 23.3
2020-Feb-20 18:01 197 22.8
2020-Feb-20 17:46 174 22.2
2020-Feb-20 17:31 245 22.2
2020-Feb-20 17:16 119 22.2
2020-Feb-20 17:02 124 21.7
2020-Feb-20 16:45 185 21.7
2020-Feb-20 16:31 224 20.6
2020-Feb-20 16:16 226 20.0
2020-Feb-20 16:01 183 19.4